GAOFEN-3

Last updated on Fri Oct 04 2024 00:02:25 GMT+0000 (Coordinated Universal Time)

1 41727U 16049A 24277.59445642 .00000668 00000+0 21584-3 0 9994 2 41727 98.4076 283.6679 0001035 89.5276 270.6033 14.42215723429056
UTC large
Height (km)
Speed (km/s)
/
Latitude / Longitude
Inclination (degrees)
Orbital Period (minutes)
Azimuth
Elevation
Range (km)
Doppler Factor

Next 0 passes for location: London (51.5072 / 0.1276)

Sorry there are no passes over London.